Silver Bay, MN

2:38 PM CDT on May 25, 2018 (GMT -0500)
Silver Bay Municipal

Weather History for KBFW - March, 2013

Change the Weather History Date:

Sunday, March 31, 2013

  Actual Average Record
Temperature  
Mean Temperature 28 °F -  
Max Temperature 37 °F 37 °F 53 °F (2015)
Min Temperature 19 °F 19 °F 5 °F (1997)
Degree Days  
Heating Degree Days 37    
Moisture  
Dew Point 11 °F    
Average Humidity 45    
Maximum Humidity 74    
Minimum Humidity 22    
Precipitation  
Precipitation 0.00 in - - ()
Sea Level Pressure  
Sea Level Pressure 29.74 in    
Wind  
Wind Speed 4 mph (NW)    
Max Wind Speed 15 mph    
Max Gust Speed 28 mph    
Visibility 10 miles    
Events Snow    
Averages and records for this station are not official NWS values.
T = Trace of Precipitation, MM = Missing Value Source: NWS Daily Summary

Daily Weather History Graph

Daily Weather History Graph

Search for Another Location

Airport or City:

Astronomy

Mar. 31, 2013 Rise Set
Actual Time 6:46 AM CDT 7:34 PM CDT
Civil Twilight 6:15 AM CDT 8:05 PM CDT
Nautical Twilight 5:38 AM CDT 8:42 PM CDT
Astronomical Twilight 4:59 AM CDT 9:21 PM CDT
Moon No Moon Rise 9:16 AM CDT (3/31)
Length of Visible Light 13h 50m
Length of Day
12h 48m
Waning Gibbous, 77% of the Moon is Illuminated
Mar 31
Waning Gibbous
Apr 2
Last Quarter
Apr 10
New
Apr 18
First Quarter
Apr 25
Full

Hourly Weather History & Observations

Time (CDT) Temp. Windchill Dew Point Humidity Pressure Visibility Wind Dir Wind Speed Gust Speed Precip Events Conditions
12:13 AM 37.4 °F - 15.8 °F 41% 29.70 in 10.0 mi Calm Calm - N/A   Clear
12:33 AM 37.4 °F 34.9 °F 15.8 °F 41% 29.70 in 10.0 mi NW 3.5 mph - N/A   Clear
12:53 AM 37.4 °F - 15.8 °F 41% 29.69 in 10.0 mi Calm Calm - N/A   Clear
1:13 AM 35.6 °F 31.7 °F 15.8 °F 44% 29.69 in 10.0 mi NW 4.6 mph - N/A   Clear
1:33 AM 35.6 °F - 15.8 °F 44% 29.68 in 10.0 mi Calm Calm - N/A   Clear
1:53 AM 35.6 °F - 15.8 °F 44% 29.67 in 10.0 mi Calm Calm - N/A   Clear
2:13 AM 35.6 °F 31.7 °F 15.8 °F 44% 29.67 in 10.0 mi NW 4.6 mph - N/A   Clear
2:33 AM 35.6 °F - 15.8 °F 44% 29.67 in 10.0 mi Calm Calm - N/A   Mostly Cloudy
2:53 AM 35.6 °F - 15.8 °F 44% 29.66 in 10.0 mi Calm Calm - N/A   Mostly Cloudy
3:14 AM 33.8 °F - 15.8 °F 48% 29.66 in 10.0 mi Calm Calm - N/A   Scattered Clouds
3:33 AM 33.8 °F 29.6 °F 17.6 °F 52% 29.66 in 10.0 mi West 4.6 mph - N/A   Scattered Clouds
3:53 AM 33.8 °F 26.4 °F 17.6 °F 52% 29.65 in 10.0 mi WNW 9.2 mph - N/A   Mostly Cloudy
4:13 AM 33.8 °F - 19.4 °F 56% 29.65 in 10.0 mi Calm Calm - N/A   Mostly Cloudy
4:33 AM 32.0 °F 28.7 °F 23.0 °F 69% 29.64 in 10.0 mi WNW 3.5 mph - N/A   Mostly Cloudy
4:53 AM 30.2 °F - 21.2 °F 69% 29.63 in 10.0 mi Calm Calm - N/A   Mostly Cloudy
5:13 AM 30.2 °F - 21.2 °F 69% 29.63 in 10.0 mi Calm Calm - N/A   Scattered Clouds
5:33 AM 30.2 °F - 21.2 °F 69% 29.63 in 10.0 mi Calm Calm - N/A Snow Light Snow
5:53 AM 28.4 °F - 21.2 °F 74% 29.63 in 10.0 mi Calm Calm - N/A   Scattered Clouds
6:13 AM 28.4 °F - 21.2 °F 74% 29.63 in 10.0 mi Calm Calm - N/A   Clear
6:33 AM 28.4 °F 23.3 °F 21.2 °F 74% 29.63 in 10.0 mi West 4.6 mph - N/A   Clear
6:53 AM 28.4 °F 24.6 °F 21.2 °F 74% 29.63 in 10.0 mi West 3.5 mph - N/A   Clear
7:13 AM 30.2 °F 24.3 °F 21.2 °F 69% 29.63 in 10.0 mi WNW 5.8 mph - N/A   Clear
7:33 AM 30.2 °F 23.4 °F 21.2 °F 69% 29.63 in 10.0 mi WNW 6.9 mph - N/A   Scattered Clouds
7:53 AM 32.0 °F 24.8 °F 19.4 °F 60% 29.63 in 10.0 mi WNW 8.1 mph - N/A   Clear
8:13 AM 33.8 °F 28.6 °F 19.4 °F 56% 29.63 in 10.0 mi WNW 5.8 mph - N/A   Scattered Clouds
8:33 AM 32.0 °F 24.8 °F 17.6 °F 55% 29.64 in 10.0 mi WNW 8.1 mph 20.7 mph N/A   Scattered Clouds
8:53 AM 33.8 °F 24.8 °F 15.8 °F 48% 29.64 in 10.0 mi NW 12.7 mph 20.7 mph N/A   Scattered Clouds
9:13 AM 33.8 °F 24.3 °F 15.8 °F 48% 29.64 in 10.0 mi NNW 13.8 mph 25.3 mph N/A   Clear
9:53 AM 32.0 °F 24.8 °F 15.8 °F 51% 29.65 in 10.0 mi WNW 8.1 mph 16.1 mph N/A   Mostly Cloudy
10:13 AM 35.6 °F 28.0 °F 15.8 °F 44% 29.65 in 10.0 mi NNW 10.4 mph 16.1 mph N/A   Mostly Cloudy
10:33 AM 33.8 °F 26.4 °F 17.6 °F 52% 29.67 in 1.5 mi NW 9.2 mph 20.7 mph N/A Snow Light Snow
10:53 AM 35.6 °F 28.6 °F 12.2 °F 38% 29.67 in 10.0 mi NNW 9.2 mph 21.9 mph N/A   Mostly Cloudy
11:13 AM 33.8 °F 27.0 °F 14.0 °F 44% 29.68 in 7.0 mi NW 8.1 mph 21.9 mph N/A Snow Light Snow
11:33 AM 35.6 °F 27.1 °F 10.4 °F 35% 29.68 in 7.0 mi WNW 12.7 mph 23.0 mph N/A   Scattered Clouds
11:53 AM 37.4 °F 31.4 °F 15.8 °F 41% 29.69 in 10.0 mi WNW 8.1 mph 26.5 mph N/A   Clear
12:13 PM 33.8 °F 26.4 °F 12.2 °F 41% 29.70 in 4.0 mi NNW 9.2 mph 23.0 mph N/A Snow Light Snow
12:33 PM 35.6 °F 30.7 °F 8.6 °F 33% 29.70 in 10.0 mi North 5.8 mph 27.6 mph N/A   Scattered Clouds
12:53 PM 33.8 °F 25.3 °F 10.4 °F 38% 29.72 in 10.0 mi NNW 11.5 mph 24.2 mph N/A   Scattered Clouds
1:14 PM 33.8 °F 24.3 °F 12.2 °F 41% 29.73 in 10.0 mi NW 13.8 mph 21.9 mph N/A   Scattered Clouds
1:33 PM 33.8 °F 23.9 °F 14.0 °F 44% 29.74 in 5.0 mi North 15.0 mph 26.5 mph N/A Snow Light Snow
1:53 PM 32.0 °F 23.6 °F 12.2 °F 44% 29.74 in 10.0 mi North 10.4 mph 18.4 mph N/A   Clear
2:13 PM 33.8 °F 25.8 °F 6.8 °F 32% 29.75 in 10.0 mi NW 10.4 mph 16.1 mph N/A   Scattered Clouds
2:33 PM 33.8 °F 25.8 °F 5.0 °F 30% 29.75 in 10.0 mi NNW 10.4 mph 17.3 mph N/A   Scattered Clouds
2:53 PM 35.6 °F 28.0 °F -0.4 °F 22% 29.76 in 10.0 mi NNW 10.4 mph 21.9 mph N/A   Scattered Clouds
3:13 PM 32.0 °F 23.6 °F 3.2 °F 30% 29.77 in 10.0 mi NNW 10.4 mph 20.7 mph N/A   Scattered Clouds
3:33 PM 33.8 °F 25.8 °F 3.2 °F 28% 29.77 in 10.0 mi West 10.4 mph 18.4 mph N/A   Scattered Clouds
3:53 PM 30.2 °F 20.2 °F 6.8 °F 37% 29.79 in 10.0 mi NNW 12.7 mph 23.0 mph N/A   Scattered Clouds
4:13 PM 30.2 °F 21.3 °F 6.8 °F 37% 29.80 in 10.0 mi NW 10.4 mph 20.7 mph N/A   Scattered Clouds
4:33 PM 30.2 °F 22.6 °F 10.4 °F 44% 29.80 in 7.0 mi North 8.1 mph 23.0 mph N/A   Scattered Clouds
4:53 PM 33.8 °F 27.0 °F 3.2 °F 28% 29.80 in 10.0 mi WNW 8.1 mph - N/A   Clear
5:13 PM 32.0 °F 22.5 °F 1.4 °F 27% 29.81 in 10.0 mi NNW 12.7 mph 23.0 mph N/A   Scattered Clouds
5:33 PM 28.4 °F 18.0 °F 3.2 °F 34% 29.83 in 10.0 mi NW 12.7 mph 19.6 mph N/A   Scattered Clouds
5:53 PM 28.4 °F 18.0 °F 3.2 °F 34% 29.83 in 10.0 mi NW 12.7 mph 23.0 mph N/A   Clear
6:13 PM 28.4 °F 22.2 °F 1.4 °F 31% 29.84 in 10.0 mi NW 5.8 mph 19.6 mph N/A   Clear
6:33 PM 26.6 °F 22.6 °F -0.4 °F 31% 29.85 in 10.0 mi NNW 3.5 mph 21.9 mph N/A   Scattered Clouds
6:53 PM 26.6 °F 20.0 °F 1.4 °F 34% 29.86 in 10.0 mi NNW 5.8 mph 19.6 mph N/A   Scattered Clouds
7:13 PM 24.8 °F 19.1 °F 1.4 °F 36% 29.87 in 10.0 mi NNW 4.6 mph - N/A   Clear
7:33 PM 24.8 °F 19.1 °F 5.0 °F 43% 29.88 in 10.0 mi NNW 4.6 mph - N/A   Clear
7:53 PM 23.0 °F 18.4 °F 3.2 °F 43% 29.89 in 10.0 mi NW 3.5 mph 19.6 mph N/A   Scattered Clouds
8:13 PM 23.0 °F - 1.4 °F 39% 29.90 in 10.0 mi Calm Calm - N/A   Clear
8:33 PM 23.0 °F 15.8 °F -0.4 °F 36% 29.91 in 10.0 mi NNW 5.8 mph 19.6 mph N/A   Scattered Clouds
9:13 PM 21.2 °F - -0.4 °F 39% 29.92 in 10.0 mi Calm Calm - N/A   Clear
9:33 PM 21.2 °F 16.4 °F -2.2 °F 36% 29.92 in 10.0 mi NNW 3.5 mph 16.1 mph N/A   Clear
9:53 PM 21.2 °F 14.9 °F -0.4 °F 39% 29.93 in 10.0 mi NW 4.6 mph - N/A   Clear
10:13 PM 21.2 °F - -0.4 °F 39% 29.93 in 10.0 mi Calm Calm - N/A   Clear
10:33 PM 21.2 °F 11.7 °F 1.4 °F 42% 29.94 in 10.0 mi NNW 8.1 mph - N/A   Clear
10:53 PM 19.4 °F 14.3 °F 1.4 °F 46% 29.94 in 10.0 mi NNW 3.5 mph - N/A   Clear
11:13 PM 19.4 °F - 1.4 °F 46% 29.94 in 10.0 mi Calm Calm - N/A   Clear
11:33 PM 19.4 °F - 1.4 °F 46% 29.95 in 10.0 mi Calm Calm - N/A   Clear
11:53 PM 19.4 °F - 1.4 °F 46% 29.95 in 10.0 mi Calm Calm - N/A   Clear